| time (UTC) | temp F | wind direction | speed knots | gust knots | rain 1hr in | rain 24hr in | rain mn in | humidity % | barometer mb |
| 20260506185348 | 74 | 337 | 0.9 | 12.2 | 0.00 | 0.00 | 0.00 | 88 | 995.1 |
| 20260506184847 | 73 | 14 | 0.9 | 12.2 | 0.00 | 0.00 | 0.00 | 88 | 996.5 |
| 20260506184346 | 72 | 326 | 3.5 | 12.2 | 0.00 | 0.00 | 0.00 | 89 | 998.9 |
| 20260506183845 | 72 | 323 | 2.6 | 12.2 | 0.00 | 0.00 | 0.00 | 89 | 999.5 |
| 20260506183344 | 71 | 316 | 3.5 | 12.2 | 0.00 | 0.00 | 0.00 | 89 | 1000.6 |
| 20260506182843 | 71 | 312 | 6.1 | 12.2 | 0.00 | 0.00 | 0.00 | 88 | 1000.8 |
| 20260506182342 | 71 | 318 | 6.1 | 12.2 | 0.00 | 0.00 | 0.00 | 87 | 1000.7 |
| 20260506181841 | 72 | 308 | 6.1 | 12.2 | 0.00 | 0.00 | 0.00 | 88 | 999.8 |
| 20260506181340 | 71 | 310 | 7.0 | 13.0 | 0.00 | 0.00 | 0.00 | 88 | 999.7 |
| 20260506180839 | 72 | 317 | 9.6 | 13.0 | 0.00 | 0.00 | 0.00 | 87 | 998.0 |
| 20260506180338 | 72 | 320 | 7.8 | 13.0 | 0.00 | 0.00 | 0.00 | 87 | 995.0 |
| 20260506175837 | 73 | 319 | 7.0 | 13.0 | 0.00 | 0.00 | 0.00 | 86 | 992.5 |
| 20260506175336 | 75 | 315 | 8.7 | 12.2 | 0.00 | 0.00 | 0.00 | 83 | 990.1 |
| 20260506174836 | 80 | 298 | 6.1 | 11.3 | 0.00 | 0.00 | 0.00 | 77 | 983.9 |
| 20260506174335 | 81 | 165 | 2.6 | 9.6 | 0.00 | 0.00 | 0.00 | 85 | 982.0 |
| 20260506173834 | 81 | 165 | 0.9 | 9.6 | 0.00 | 0.00 | 0.00 | 85 | 981.0 |
| 20260506173332 | 81 | 161 | 0.9 | 9.6 | 0.00 | 0.00 | 0.00 | 85 | 982.2 |
| 20260506172316 | 80 | 161 | 1.7 | 9.6 | 0.00 | 0.00 | 0.00 | 86 | 984.8 |
| 20260506171814 | 80 | 161 | 1.7 | 9.6 | 0.00 | 0.00 | 0.00 | 86 | 984.7 |
| 20260506171313 | 80 | 161 | 1.7 | 9.6 | 0.00 | 0.00 | 0.00 | 87 | 985.4 |
| 20260506170256 | 79 | 162 | 0.0 | 9.6 | 0.00 | 0.00 | 0.00 | 87 | 987.1 |
| 20260506165755 | 79 | 161 | 0.9 | 9.6 | 0.00 | 0.00 | 0.00 | 87 | 986.6 |
| 20260506165255 | 79 | 161 | 1.7 | 9.6 | 0.00 | 0.00 | 0.00 | 88 | 984.8 |
| 20260506164754 | 79 | 161 | 0.0 | 9.6 | 0.00 | 0.00 | 0.00 | 88 | 986.9 |
| 20260506163736 | 79 | 161 | 0.9 | 9.6 | 0.00 | 0.00 | 0.00 | 89 | 986.3 |
| 20260506163236 | 79 | 162 | 0.9 | 9.6 | 0.00 | 0.00 | 0.00 | 88 | 987.1 |
| 20260506162735 | 79 | 162 | 0.0 | 9.6 | 0.00 | 0.00 | 0.00 | 89 | 987.3 |
| 20260506162234 | 79 | 162 | 0.9 | 9.6 | 0.00 | 0.00 | 0.00 | 89 | 987.5 |
| 20260506161733 | 79 | 161 | 0.0 | 9.6 | 0.00 | 0.00 | 0.00 | 89 | 985.7 |
| 20260506161232 | 79 | 161 | 0.9 | 9.6 | 0.00 | 0.00 | 0.00 | 89 | 984.2 |
| 20260506160731 | 78 | 161 | 0.0 | 9.6 | 0.00 | 0.00 | 0.00 | 90 | 986.2 |
| 20260506160230 | 78 | 161 | 0.9 | 9.6 | 0.00 | 0.00 | 0.00 | 90 | 985.4 |
| 20260506155213 | 78 | 162 | 0.0 | 9.6 | 0.00 | 0.00 | 0.00 | 91 | 989.6 |
| 20260506154712 | 78 | 162 | 0.9 | 9.6 | 0.00 | 0.00 | 0.00 | 91 | 990.2 |
| 20260506154211 | 78 | 162 | 0.9 | 9.6 | 0.00 | 0.00 | 0.00 | 91 | 990.5 |
| 20260506153710 | 78 | 162 | 0.0 | 9.6 | 0.00 | 0.00 | 0.00 | 92 | 991.0 |
| 20260506153209 | 78 | 162 | 0.9 | 9.6 | 0.00 | 0.00 | 0.00 | 92 | 991.7 |
| 20260506152708 | 78 | 162 | 2.6 | 9.6 | 0.00 | 0.00 | 0.00 | 92 | 991.4 |
| 20260506151651 | 77 | 162 | 1.7 | 9.6 | 0.00 | 0.00 | 0.00 | 92 | 990.3 |
| 20260506151150 | 77 | 162 | 0.0 | 9.6 | 0.00 | 0.00 | 0.00 | 92 | 990.6 |
| 20260506150649 | 77 | 162 | 0.9 | 9.6 | 0.00 | 0.00 | 0.00 | 92 | 990.5 |
| 20260506150148 | 77 | 162 | 0.0 | 9.6 | 0.00 | 0.00 | 0.00 | 92 | 991.0 |
| 20260506145647 | 77 | 162 | 0.0 | 9.6 | 0.00 | 0.00 | 0.00 | 92 | 991.0 |
| 20260506145146 | 77 | 162 | 0.0 | 9.6 | 0.00 | 0.00 | 0.00 | 92 | 990.7 |
| 20260506144645 | 77 | 162 | 0.9 | 9.6 | 0.00 | 0.00 | 0.00 | 92 | 990.6 |
| 20260506143628 | 77 | 162 | 1.7 | 9.6 | 0.00 | 0.00 | 0.00 | 93 | 991.1 |
| 20260506143127 | 77 | 162 | 0.0 | 9.6 | 0.00 | 0.00 | 0.00 | 93 | 991.8 |
| 20260506142625 | 77 | 162 | 0.9 | 9.6 | 0.00 | 0.00 | 0.00 | 93 | 991.8 |
| 20260506142124 | 77 | 162 | 1.7 | 9.6 | 0.00 | 0.00 | 0.00 | 93 | 991.5 |
| 20260506141623 | 77 | 162 | 0.9 | 9.6 | 0.00 | 0.00 | 0.00 | 93 | 991.6 |
| 20260506141122 | 77 | 162 | 1.7 | 9.6 | 0.00 | 0.00 | 0.00 | 93 | 991.9 |
| 20260506140621 | 77 | 162 | 0.9 | 9.6 | 0.00 | 0.00 | 0.00 | 93 | 992.7 |
| 20260506140120 | 76 | 162 | 2.6 | 9.6 | 0.00 | 0.00 | 0.00 | 93 | 992.8 |
| 20260506135619 | 76 | 162 | 2.6 | 9.6 | 0.00 | 0.00 | 0.00 | 93 | 992.4 |
| 20260506135118 | 76 | 162 | 1.7 | 9.6 | 0.00 | 0.00 | 0.00 | 93 | 992.4 |
| 20260506134617 | 76 | 162 | 1.7 | 9.6 | 0.00 | 0.00 | 0.00 | 93 | 992.3 |
| 20260506134116 | 76 | 162 | 0.0 | 9.6 | 0.00 | 0.00 | 0.00 | 94 | 993.0 |
| 20260506132543 | 76 | 163 | 2.6 | 9.6 | 0.00 | 0.00 | 0.00 | 94 | 993.9 |
| 20260506131526 | 76 | 163 | 2.6 | 9.6 | 0.00 | 0.00 | 0.00 | 93 | 993.7 |
| 20260506131025 | 76 | 163 | 2.6 | 9.6 | 0.00 | 0.00 | 0.00 | 93 | 992.9 |
| 20260506130525 | 76 | 163 | 1.7 | 9.6 | 0.00 | 0.00 | 0.00 | 93 | 992.6 |
| 20260506130023 | 76 | 163 | 0.9 | 9.6 | 0.00 | 0.00 | 0.00 | 93 | 992.7 |
| 20260506125522 | 76 | 163 | 1.7 | 9.6 | 0.00 | 0.00 | 0.00 | 93 | 992.3 |
| 20260506125022 | 76 | 163 | 0.9 | 9.6 | 0.00 | 0.00 | 0.00 | 93 | 992.9 |
| 20260506124520 | 76 | 165 | 0.9 | 9.6 | 0.00 | 0.00 | 0.00 | 93 | 992.9 |
| 20260506122432 | 76 | 165 | 1.7 | 9.6 | 0.00 | 0.00 | 0.00 | 93 | 993.6 |
| 20260506121930 | 76 | 165 | 1.7 | 9.6 | 0.00 | 0.00 | 0.00 | 93 | 993.2 |
| 20260506121429 | 76 | 165 | 0.9 | 9.6 | 0.00 | 0.00 | 0.00 | 93 | 993.6 |
| 20260506120928 | 76 | 165 | 0.9 | 9.6 | 0.00 | 0.00 | 0.00 | 93 | 993.5 |
| 20260506120428 | 76 | 165 | 1.7 | 9.6 | 0.00 | 0.00 | 0.00 | 93 | 993.8 |
| 20260506115926 | 76 | 165 | 1.7 | 9.6 | 0.00 | 0.00 | 0.00 | 93 | 993.9 |
| 20260506115425 | 76 | 165 | 1.7 | 9.6 | 0.00 | 0.00 | 0.00 | 93 | 994.3 |
| 20260506114924 | 76 | 165 | 1.7 | 9.6 | 0.00 | 0.00 | 0.00 | 93 | 994.1 |
| 20260506114423 | 76 | 165 | 2.6 | 9.6 | 0.00 | 0.00 | 0.00 | 93 | 993.7 |
| 20260506113406 | 76 | 166 | 1.7 | 9.6 | 0.00 | 0.00 | 0.00 | 93 | 994.2 |
| 20260506112905 | 76 | 166 | 1.7 | 9.6 | 0.00 | 0.00 | 0.00 | 93 | 994.2 |
| 20260506112405 | 76 | 139 | 3.5 | 10.4 | 0.00 | 0.00 | 0.00 | 93 | 994.3 |
| 20260506111348 | 76 | 140 | 3.5 | 10.4 | 0.00 | 0.00 | 0.00 | 93 | 993.2 |
| 20260506110847 | 76 | 141 | 2.6 | 10.4 | 0.00 | 0.00 | 0.00 | 94 | 993.0 |
| 20260506110346 | 76 | 141 | 0.9 | 10.4 | 0.00 | 0.00 | 0.00 | 94 | 992.6 |
| 20260506105845 | 76 | 141 | 0.9 | 10.4 | 0.00 | 0.00 | 0.00 | 94 | 992.8 |
| 20260506105344 | 76 | 141 | 0.9 | 10.4 | 0.00 | 0.00 | 0.00 | 94 | 992.5 |
| 20260506104843 | 76 | 141 | 0.9 | 10.4 | 0.00 | 0.00 | 0.00 | 94 | 993.0 |
| 20260506104342 | 76 | 141 | 1.7 | 10.4 | 0.00 | 0.00 | 0.00 | 94 | 993.2 |
| 20260506103841 | 76 | 141 | 0.9 | 10.4 | 0.00 | 0.00 | 0.00 | 94 | 992.7 |
| 20260506103340 | 76 | 141 | 1.7 | 10.4 | 0.00 | 0.00 | 0.00 | 94 | 993.4 |
| 20260506102839 | 76 | 141 | 0.9 | 10.4 | 0.00 | 0.00 | 0.00 | 94 | 993.5 |
| 20260506101822 | 76 | 151 | 3.5 | 10.4 | 0.00 | 0.00 | 0.00 | 94 | 993.7 |
| 20260506100805 | 76 | 152 | 3.5 | 10.4 | 0.00 | 0.00 | 0.00 | 94 | 994.2 |
| 20260506100304 | 76 | 158 | 3.5 | 10.4 | 0.00 | 0.00 | 0.00 | 94 | 994.1 |
| 20260506095803 | 76 | 164 | 4.3 | 10.4 | 0.00 | 0.00 | 0.00 | 94 | 994.4 |
| 20260506094746 | 76 | 150 | 3.5 | 10.4 | 0.00 | 0.00 | 0.00 | 94 | 994.6 |
| 20260506094245 | 76 | 161 | 4.3 | 10.4 | 0.00 | 0.00 | 0.00 | 94 | 994.7 |
| 20260506093744 | 76 | 161 | 3.5 | 10.4 | 0.00 | 0.00 | 0.00 | 93 | 994.4 |
| 20260506092727 | 76 | 158 | 3.5 | 10.4 | 0.00 | 0.00 | 0.00 | 93 | 994.7 |
| 20260506091710 | 76 | 167 | 4.3 | 10.4 | 0.00 | 0.00 | 0.00 | 93 | 994.5 |
| 20260506091209 | 76 | 164 | 2.6 | 10.4 | 0.00 | 0.00 | 0.00 | 93 | 994.1 |
| 20260506090152 | 76 | 167 | 3.5 | 10.4 | 0.00 | 0.00 | 0.00 | 93 | 994.2 |
| 20260506085651 | 76 | 160 | 4.3 | 10.4 | 0.00 | 0.00 | 0.00 | 93 | 994.4 |
| 20260506085150 | 76 | 154 | 3.5 | 10.4 | 0.00 | 0.00 | 0.00 | 93 | 994.4 |
| 20260506084649 | 76 | 161 | 5.2 | 10.4 | 0.00 | 0.00 | 0.00 | 93 | 994.6 |
| 20260506084148 | 76 | 163 | 4.3 | 10.4 | 0.00 | 0.00 | 0.00 | 93 | 994.7 |
| 20260506083647 | 76 | 161 | 3.5 | 10.4 | 0.00 | 0.00 | 0.00 | 93 | 994.6 |
| 20260506083146 | 76 | 153 | 4.3 | 10.4 | 0.00 | 0.00 | 0.00 | 93 | 994.4 |
| 20260506082645 | 76 | 155 | 3.5 | 10.4 | 0.00 | 0.00 | 0.00 | 93 | 994.2 |
| 20260506082144 | 76 | 158 | 3.5 | 10.4 | 0.00 | 0.00 | 0.00 | 93 | 994.3 |
| 20260506081643 | 76 | 173 | 2.6 | 10.4 | 0.00 | 0.00 | 0.00 | 93 | 994.6 |
| 20260506081142 | 76 | 161 | 3.5 | 10.4 | 0.00 | 0.00 | 0.00 | 93 | 994.7 |
| 20260506080641 | 76 | 152 | 4.3 | 11.3 | 0.00 | 0.00 | 0.00 | 93 | 994.8 |
| 20260506080140 | 76 | 160 | 6.1 | 11.3 | 0.00 | 0.00 | 0.00 | 93 | 994.8 |
| 20260506073119 | 76 | 148 | 5.2 | 11.3 | 0.00 | 0.00 | 0.00 | 93 | 994.9 |
| 20260506072618 | 76 | 146 | 3.5 | 11.3 | 0.00 | 0.00 | 0.00 | 92 | 995.0 |
| 20260506072117 | 76 | 151 | 4.3 | 11.3 | 0.00 | 0.00 | 0.00 | 92 | 994.7 |
| 20260506071100 | 76 | 153 | 5.2 | 10.4 | 0.00 | 0.00 | 0.00 | 92 | 995.3 |
| 20260506070559 | 76 | 156 | 4.3 | 10.4 | 0.00 | 0.00 | 0.00 | 93 | 995.0 |
| 20260506062035 | 76 | 151 | 5.2 | 10.4 | 0.00 | 0.00 | 0.00 | 92 | 995.6 |
| 20260506061534 | 76 | 152 | 5.2 | 10.4 | 0.00 | 0.00 | 0.00 | 92 | 995.9 |
| 20260506061033 | 76 | 161 | 6.1 | 10.4 | 0.00 | 0.00 | 0.00 | 92 | 995.8 |
| 20260506060532 | 76 | 147 | 6.1 | 10.4 | 0.00 | 0.00 | 0.00 | 92 | 995.4 |
| 20260506050952 | 76 | 155 | 4.3 | 10.4 | 0.00 | 0.00 | 0.00 | 91 | 995.6 |
| 20260506050444 | 76 | 164 | 2.6 | 10.4 | 0.00 | 0.00 | 0.00 | 91 | 995.2 |
| 20260506044941 | 77 | 160 | 3.5 | 10.4 | 0.00 | 0.00 | 0.00 | 90 | 995.6 |
| 20260506044440 | 77 | 145 | 3.5 | 10.4 | 0.00 | 0.00 | 0.00 | 90 | 995.2 |
| 20260506043939 | 77 | 159 | 4.3 | 10.4 | 0.00 | 0.00 | 0.00 | 90 | 995.9 |
| 20260506042406 | 77 | 148 | 6.1 | 11.3 | 0.00 | 0.00 | 0.00 | 90 | 996.0 |
| 20260506041905 | 77 | 155 | 3.5 | 11.3 | 0.00 | 0.00 | 0.00 | 89 | 995.7 |
| 20260506041404 | 77 | 158 | 5.2 | 11.3 | 0.00 | 0.00 | 0.00 | 89 | 995.6 |
| 20260506035315 | 77 | 153 | 6.1 | 11.3 | 0.00 | 0.00 | 0.00 | 89 | 995.5 |
| 20260506034814 | 77 | 147 | 7.0 | 11.3 | 0.00 | 0.00 | 0.00 | 89 | 994.8 |
| 20260506034313 | 77 | 152 | 7.0 | 11.3 | 0.00 | 0.00 | 0.00 | 89 | 995.4 |
| 20260506033257 | 77 | 149 | 7.0 | 11.3 | 0.00 | 0.00 | 0.00 | 89 | 995.2 |
| 20260506032755 | 77 | 160 | 5.2 | 11.3 | 0.00 | 0.00 | 0.00 | 89 | 995.0 |
| 20260506032255 | 77 | 159 | 5.2 | 11.3 | 0.00 | 0.00 | 0.00 | 88 | 994.7 |
| 20260506031753 | 77 | 152 | 5.2 | 11.3 | 0.00 | 0.00 | 0.00 | 88 | 994.5 |
| 20260506030736 | 78 | 143 | 5.2 | 11.3 | 0.00 | 0.00 | 0.00 | 88 | 994.2 |
| 20260506025720 | 78 | 150 | 3.5 | 11.3 | 0.00 | 0.00 | 0.00 | 87 | 994.2 |
| 20260506025219 | 78 | 152 | 4.3 | 11.3 | 0.00 | 0.00 | 0.00 | 87 | 994.1 |
| 20260506024718 | 78 | 163 | 4.3 | 11.3 | 0.00 | 0.00 | 0.00 | 87 | 994.5 |
| 20260506024217 | 78 | 144 | 7.0 | 11.3 | 0.00 | 0.00 | 0.00 | 87 | 994.2 |
| 20260506023200 | 78 | 149 | 6.1 | 13.0 | 0.00 | 0.00 | 0.00 | 87 | 993.8 |
| 20260506022659 | 78 | 156 | 6.1 | 13.0 | 0.00 | 0.00 | 0.00 | 87 | 993.4 |
| 20260506021642 | 78 | 140 | 4.3 | 12.2 | 0.00 | 0.00 | 0.00 | 86 | 993.8 |
| 20260506020109 | 78 | 161 | 6.1 | 11.3 | 0.00 | 0.00 | 0.00 | 86 | 993.2 |
| 20260506015608 | 78 | 153 | 6.1 | 12.2 | 0.00 | 0.00 | 0.00 | 85 | 993.2 |
| 20260506015107 | 79 | 149 | 4.3 | 12.2 | 0.00 | 0.00 | 0.00 | 85 | 993.1 |
| 20260506014606 | 79 | 153 | 4.3 | 12.2 | 0.00 | 0.00 | 0.00 | 85 | 993.0 |
| 20260506014105 | 79 | 157 | 4.3 | 12.2 | 0.00 | 0.00 | 0.00 | 85 | 992.7 |
| 20260506013604 | 79 | 155 | 6.1 | 12.2 | 0.00 | 0.00 | 0.00 | 85 | 992.7 |
| 20260506013103 | 79 | 145 | 6.1 | 12.2 | 0.00 | 0.00 | 0.00 | 85 | 992.1 |
| 20260506012602 | 79 | 153 | 2.6 | 12.2 | 0.00 | 0.00 | 0.00 | 84 | 992.1 |
| 20260506012101 | 79 | 143 | 6.1 | 12.2 | 0.00 | 0.00 | 0.00 | 84 | 992.1 |
| 20260506011600 | 79 | 170 | 5.2 | 12.2 | 0.00 | 0.00 | 0.00 | 84 | 992.1 |
| 20260506011059 | 79 | 147 | 5.2 | 12.2 | 0.00 | 0.00 | 0.00 | 83 | 992.0 |
| 20260506010042 | 79 | 155 | 7.0 | 12.2 | 0.00 | 0.00 | 0.00 | 83 | 991.7 |
| 20260506005541 | 80 | 162 | 6.1 | 12.2 | 0.00 | 0.00 | 0.00 | 82 | 991.9 |
| 20260506005040 | 80 | 160 | 6.1 | 12.2 | 0.00 | 0.00 | 0.00 | 82 | 991.7 |
| 20260506004539 | 80 | 157 | 7.0 | 12.2 | 0.00 | 0.00 | 0.00 | 82 | 991.5 |
| 20260506004038 | 80 | 141 | 5.2 | 11.3 | 0.00 | 0.00 | 0.00 | 82 | 991.1 |
| 20260506003021 | 80 | 151 | 7.0 | 11.3 | 0.00 | 0.00 | 0.00 | 81 | 990.7 |
| 20260506002520 | 80 | 150 | 5.2 | 11.3 | 0.00 | 0.00 | 0.00 | 81 | 991.4 |
| 20260506002019 | 80 | 146 | 4.3 | 13.9 | 0.00 | 0.00 | 0.00 | 81 | 990.9 |
| 20260506001518 | 81 | 156 | 7.0 | 13.9 | 0.00 | 0.00 | 0.00 | 80 | 990.9 |
| 20260506001017 | 81 | 161 | 7.0 | 11.3 | 0.00 | 0.00 | 0.00 | 80 | 990.3 |
| 20260506000516 | 81 | 156 | 5.2 | 11.3 | 0.00 | 0.00 | 0.00 | 80 | 989.9 |
| 20260506000015 | 81 | 163 | 5.2 | 11.3 | 0.00 | 0.00 | 0.00 | 80 | 989.8 |
| 20260505235514 | 81 | 174 | 4.3 | 11.3 | 0.00 | 0.00 | 0.00 | 79 | 989.7 |
| 20260505235013 | 81 | 163 | 4.3 | 11.3 | 0.00 | 0.00 | 0.00 | 80 | 989.9 |
| 20260505234512 | 81 | 167 | 3.5 | 11.3 | 0.00 | 0.00 | 0.00 | 80 | 990.0 |
| 20260505234011 | 81 | 160 | 6.1 | 11.3 | 0.00 | 0.00 | 0.00 | 80 | 990.1 |
| 20260505233510 | 81 | 157 | 6.1 | 13.0 | 0.00 | 0.00 | 0.00 | 79 | 990.0 |
| 20260505232453 | 82 | 161 | 7.8 | 12.2 | 0.00 | 0.00 | 0.00 | 79 | 989.6 |
| 20260505231952 | 82 | 163 | 7.0 | 13.9 | 0.00 | 0.00 | 0.00 | 79 | 989.4 |
| 20260505231451 | 82 | 176 | 6.1 | 15.6 | 0.00 | 0.00 | 0.00 | 78 | 989.2 |
| 20260505230950 | 82 | 159 | 8.7 | 15.6 | 0.00 | 0.00 | 0.00 | 78 | 989.1 |
| 20260505225417 | 82 | 153 | 7.0 | 12.2 | 0.00 | 0.00 | 0.00 | 78 | 988.7 |
| 20260505224916 | 82 | 150 | 5.2 | 12.2 | 0.00 | 0.00 | 0.00 | 78 | 988.8 |
| 20260505224415 | 82 | 165 | 7.0 | 13.0 | 0.00 | 0.00 | 0.00 | 77 | 988.8 |
| 20260505223914 | 83 | 158 | 7.0 | 13.0 | 0.00 | 0.00 | 0.00 | 77 | 988.5 |
| 20260505223413 | 83 | 170 | 7.8 | 13.0 | 0.00 | 0.00 | 0.00 | 77 | 988.4 |
| 20260505222912 | 82 | 160 | 7.0 | 16.5 | 0.00 | 0.00 | 0.00 | 78 | 988.9 |
| 20260505222411 | 83 | 159 | 7.0 | 16.5 | 0.00 | 0.00 | 0.00 | 78 | 988.5 |
| 20260505221354 | 83 | 155 | 8.7 | 15.6 | 0.00 | 0.00 | 0.00 | 76 | 987.4 |
| 20260505220338 | 84 | 173 | 7.0 | 17.4 | 0.00 | 0.00 | 0.00 | 75 | 987.3 |
| 20260505214804 | 84 | 158 | 7.8 | 13.9 | 0.00 | 0.00 | 0.00 | 74 | 986.4 |
| 20260505214303 | 84 | 157 | 5.2 | 16.5 | 0.00 | 0.00 | 0.00 | 76 | 986.8 |
| 20260505213803 | 84 | 138 | 9.6 | 16.5 | 0.00 | 0.00 | 0.00 | 75 | 987.4 |
| 20260505213301 | 84 | 139 | 11.3 | 13.9 | 0.00 | 0.00 | 0.00 | 76 | 987.8 |
| 20260505212800 | 84 | 146 | 8.7 | 15.6 | 0.00 | 0.00 | 0.00 | 75 | 987.7 |
| 20260505212300 | 84 | 165 | 7.0 | 16.5 | 0.00 | 0.00 | 0.00 | 74 | 987.2 |
| 20260505211758 | 84 | 146 | 7.8 | 20.0 | 0.00 | 0.00 | 0.00 | 74 | 987.0 |
| 20260505211258 | 84 | 167 | 7.8 | 20.0 | 0.00 | 0.00 | 0.00 | 75 | 986.8 |
| 20260505205725 | 84 | 166 | 5.2 | 17.4 | 0.00 | 0.00 | 0.00 | 75 | 987.2 |
| 20260505205224 | 84 | 156 | 7.0 | 17.4 | 0.00 | 0.00 | 0.00 | 74 | 987.4 |
| 20260505204723 | 84 | 161 | 7.0 | 17.4 | 0.00 | 0.00 | 0.00 | 73 | 986.8 |
| 20260505204222 | 84 | 183 | 9.6 | 17.4 | 0.00 | 0.00 | 0.00 | 73 | 987.7 |
| 20260505203205 | 84 | 180 | 7.8 | 13.0 | 0.00 | 0.00 | 0.00 | 74 | 987.5 |
| 20260505202704 | 84 | 156 | 6.1 | 13.0 | 0.00 | 0.00 | 0.00 | 74 | 987.9 |
| 20260505202203 | 84 | 165 | 7.0 | 13.9 | 0.00 | 0.00 | 0.00 | 74 | 987.9 |
| 20260505201702 | 84 | 181 | 7.0 | 13.9 | 0.00 | 0.00 | 0.00 | 76 | 988.4 |
| 20260505201201 | 84 | 181 | 7.8 | 13.0 | 0.00 | 0.00 | 0.00 | 75 | 988.1 |
| 20260505195628 | 83 | 172 | 7.0 | 13.0 | 0.00 | 0.00 | 0.00 | 78 | 988.7 |
| 20260505195127 | 83 | 155 | 9.6 | 13.0 | 0.00 | 0.00 | 0.00 | 76 | 988.1 |
| 20260505194626 | 84 | 185 | 7.0 | 13.0 | 0.00 | 0.00 | 0.00 | 75 | 987.4 |
| 20260505193609 | 84 | 185 | 7.0 | 11.3 | 0.00 | 0.00 | 0.00 | 75 | 987.8 |
| 20260505193108 | 83 | 178 | 6.1 | 11.3 | 0.00 | 0.00 | 0.00 | 76 | 988.5 |
| 20260505192607 | 83 | 150 | 7.0 | 11.3 | 0.00 | 0.00 | 0.00 | 77 | 988.8 |
| 20260505192106 | 83 | 171 | 6.1 | 12.2 | 0.00 | 0.00 | 0.00 | 78 | 988.9 |
| 20260505191605 | 83 | 187 | 6.1 | 12.2 | 0.00 | 0.00 | 0.00 | 78 | 989.3 |
| 20260505191104 | 83 | 189 | 5.2 | 13.9 | 0.00 | 0.00 | 0.00 | 77 | 990.3 |
| 20260505190047 | 83 | 191 | 7.8 | 13.9 | 0.00 | 0.00 | 0.00 | 76 | 988.8 |